Location: Unspecified
(0.0000°N, 0.0000°E)
Time: 14:55:31
(UTC+02:00)

HO-68 - Visible Passes

Search period start: 30 March 2015 00:00
Search period end: 09 April 2015 00:00
Orbit: 1193 x 1204 km, 100.2° (Epoch: 30 March)

Date Brightness Start Highest point End Pass type
(mag) Time Alt. Az. Time Alt. Az. Time Alt. Az.
30 Mar ? 21:24:31 13° NE 21:24:31 13° NE 21:25:39 10° NE visible
30 Mar ? 23:13:58 17° NW 23:13:58 17° NW 23:15:23 10° NNW visible
31 Mar ? 22:56:44 21° NNW 22:56:44 21° NNW 22:58:48 10° NNW visible
01 Apr ? 22:39:30 24° NNW 22:39:30 24° NNW 22:42:01 10° NNW visible
02 Apr ? 22:22:16 25° N 22:22:16 25° N 22:25:01 10° N visible
03 Apr ? 22:05:02 24° NNE 22:05:02 24° NNE 22:07:49 10° N visible
04 Apr ? 21:47:48 20° NNE 21:47:48 20° NNE 21:50:21 10° NNE visible
04 Apr ? 23:37:15 12° NW 23:37:15 12° NW 23:37:43 10° NW visible
05 Apr ? 21:30:34 16° NE 21:30:34 16° NE 21:32:31 10° NNE visible
05 Apr ? 23:20:01 17° NW 23:20:01 17° NW 23:21:31 10° NW visible
06 Apr ? 21:13:21 11° NE 21:13:21 11° NE 21:13:59 10° NE visible
06 Apr ? 23:02:47 22° NNW 23:02:47 22° NNW 23:05:02 10° NNW visible
07 Apr ? 22:45:33 26° NNW 22:45:33 26° NNW 22:48:20 10° NNW visible
08 Apr ? 22:28:20 28° N 22:28:20 28° N 22:31:25 10° N visible
